STAR ONE C4 (40733 NORAD) Tracking and Keplerian Element Data

This shows tracking and keplerian element data for the satellite.

Feedback or suggestion? Click here.




ElementValue
Catalog40733
NameSTAR ONE C4
Epoch Orbit2134
Epoch Day130.86215911
Epoch Year2021
RAAN79.515
Inclination0.0611
Eccentricity0.0002803
Argument of Perigee332.5249
Mean Anonmoly57.2163
Mean Motion1.00272569
Decay Rate-2.6E-06
L11 40733U 15034B 21130.86215911 -.00000260 00000-0 00000-0 0 9999
L22 40733 0.0611 79.5150 0002803 332.5249 57.2163 1.00272569 21341

Live tracking and technical data element details for STAR ONE C4 (NORAD 40733). STAR ONE C4 can be tracked NOW for your location showing map with azimuth and elevation plus other details from your city location.

Track the satellite on the map from your city or location and see movement details for azimuth, elevation, latitude, longitude, range, height, and movement on the map or in text.







IsCatalogInMostPopularTable: catalog: 40733, numindb: 657
Update: records affected: 1



GetName: 40733 STAR ONE C4

Hit Count: updated at: Tue, 11 May 2021 20:33:39 GMT